STARLINK-32432, 61257

Orbit data source: Space-Track

STARLINK-32432, 61257 is a payload satellite owned by SpaceX/Seattle (US) in LEO that was launched on Wed, 25 Sep 2024 UTC via an FALCON 9 launch vehicle from the Air Force Western Test Range (AFWTR). Payload-class satellites include a variety of spacecraft equipped with specific instruments for various scientific and technological missions. These include communications satellites like Starlink; space stations such as the ISS; scientific satellites like the Hubble; Earth observation satellites from companies like Planet Labs, Umbra, and HawkEye 360; GPS; miniature CubeSats for education and research; and military/defense satellites.

Loading next visibility...
Identifier
61257, 2024-175Q
Orbit
LEO
Country
Flag of USUS
Related business
Manufacturer
SpaceX/Seattle
Mission
Operational Commercial Communications
Bus & Motor
STARLINK V2M, Unknown motor
Mass
730 kg wet, ~700 kg dry
Launch date (UTC)
2024-09-25 (2 years ago)
Launch vehicle
FALCON 9
Launch site
Air Force Western Test Range (AFWTR)
Object type
Payload
Rocket body
Debris
Shape & HBR
Box + 2 Pan, 17.7 m
Radar Cross Section
33.884 m², Large (>1 m²)

Expand to show TLE details & history
Last TLE update: 15 hours ago

TLE from 15 hours ago
0 STARLINK-32432
1 61257U 24175Q   26132.63642818 -.00000345  00000-0  48241-6 0  9990
2 61257  53.1609 257.0485 0000883  75.7089 284.4010 15.30186972 91240
Epoch: 2026-05-12T15:16Z
TLE epoch observation values (Epoch: 2026-05-12T15:16:27.394Z)
Latitude
-0.00002°
Longitude
157.52639°
Altitude
476.003 km
Speed
7.629 km/s
True Right ascension
17h 08m 11s
True Declination
0° 00' 00"
Sunlit
Object was in full shadow at epoch
Visualization orbit readout
Latitude
Unknown
Longitude
Unknown
Altitude
Unknown
Speed
Unknown
Apparent Right ascension
Unknown
Apparent Declination
Unknown
Sunlit
N/A
Visualization observer readout
Local Sidereal Time
14:28:28
Azimuth
Unknown
Elevation
Unknown
Doppler factor
Unknown
Orbital elements
Apogee altitude
476.115 km
Perigee altitude
474.905 km
Semi-major axis
6,853.647 km
Eccentricity
0.00009
Inclination
53.1609°
RAAN
257.0485°
Arg. of periapsis
75.7089°
True anomaly
284.3912°
Mean anomaly
284.401°
Eccentric anomaly
284.3961°
Mean motion
3.82526 °/min
Orbital period
94.11 mins
BSTAR
4.8241e-7
Loading maneuver chart data...
Computing Atmospheric mass density...
Loading historical data...
Loading historical data...
Loading historical data...
Loading historical data...
Loading historical data...
Loading historical data...
Loading historical data...

Documentation

Showing up to 5 results
|